#timestamp,LO_Frequency,Hit,StdDev 
1683680415.5,286047000.1,N
1683680435.3,286047000.1,N
1683680455.1,286047000.3,N
1683680475.9,286047000.9,N
1683680495.7,286047000.9,N
1683680515.6,286047001.1,N
1683680535.4,286047001.2,N
1683680555.2,286047000.5,N
1683680575.1,286047000.6,N
1683680576.0,286047000.6,N
1683680595.8,286047000.8,N
1683680615.6,286047001.1,N
1683680635.5,286047001.1,N
1683680655.3,286047000.8,N
1683680675.2,286047001.1,N
1683680695.9,286046998.8,N
1683680715.7,286046998.4,N
1683680735.6,286046999.6,N
1683680755.4,286046998.7,N
1683680775.2,286046999.1,N
1683680795.1,286046998.3,N
1683680796.0,286046998.3,N
1683680815.8,286046998.5,N
1683680835.7,286046998.2,N
1683680855.5,286046998.4,N
1683680875.3,286046998.8,N
1683680895.2,286046998.5,N
1683680915.0,286046998.5,N
1683680915.9,286046998.5,N
1683680935.7,286046998.8,N
1683680955.6,286046998.9,N
1683680975.4,286046998.3,N
1683680995.3,286047000.5,N
1683681015.1,286047001.1,N
1683681016.0,286047001.1,N
1683681035.8,286046998.2,N
1683681055.7,286047000.8,N
1683681075.5,286046998.2,N
1683681095.3,286047000.8,N
1683681115.2,286047000.8,N
1683681135.0,286047001.2,N
1683681135.9,286047001.2,N
1683681155.8,286047001.2,N
1683681175.6,286046999.9,N
1683681195.4,286046999.9,N
1683681215.3,286047000.7,N
1683681235.1,286046998.5,N
1683681255.8,286047001.1,N
1683681275.7,286046998.2,N
1683681295.5,286046998.5,N
1683681315.4,286046998.6,N
1683681335.2,286046998.3,N
1683681355.0,286046998.2,N
1683681355.9,286046998.2,N
1683681375.8,286046998.1,N
1683681395.6,286046998.3,N
1683681415.4,286046999.0,N
1683681435.3,286046998.6,N
1683681455.1,286046998.7,N
1683681475.9,286046999.3,N
1683681495.7,286047000.7,N
1683681515.5,286047001.1,N
1683681535.4,286047001.2,N
1683681555.2,286046998.4,N
1683681575.0,286046999.0,N
1683681575.9,286046999.0,N
1683681595.8,286046998.4,N
1683681615.6,286046998.3,N
1683681635.4,286046998.3,N
1683681655.3,286047000.5,N
1683681675.1,286047000.7,N
1683681695.9,286047000.9,N
1683681715.7,286047001.1,N
1683681735.5,286047001.1,N
1683681755.4,286047000.2,N
1683681775.2,286047000.2,N
1683681795.0,286046999.7,N
1683681796.0,286046999.7,N
1683681815.8,286047001.1,N
1683681835.6,286047000.9,N
1683681855.5,286047001.1,N
1683681875.3,286047000.6,N
1683681895.1,286047001.2,N
1683681915.9,286046998.6,N
1683681935.7,286047000.9,N
1683681955.5,286047001.0,N
1683681975.4,286046999.8,N
1683681995.2,286047000.1,N
1683682015.1,286047000.2,N
1683682016.0,286047000.2,N
1683682035.8,286046999.8,N
1683682055.6,286046999.9,N
1683682075.5,286047000.3,N
1683682095.3,286046999.9,N
1683682115.1,286046999.9,N
1683682135.9,286046999.9,N
1683682155.7,286046999.9,N
1683682175.6,286046999.9,N
1683682195.4,286047000.2,N
1683682215.2,286047002.7,Y
1683682235.1,286047002.8,P
1683682236.0,286047011.9,P
1683682255.8,286047002.3,N
1683682275.6,286047000.0,N
1683682295.5,286046999.8,N
1683682315.3,286047002.3,N
1683682335.2,286047002.7,N
1683682355.9,286047002.8,N
1683682375.7,286047000.0,N
1683682395.6,286047000.1,N
1683682415.4,286047000.2,N
1683682435.2,286047000.6,N
1683682455.1,286047000.9,N
1683682456.0,286047000.9,N
1683682475.8,286047000.2,N
1683682495.7,286047000.2,N
1683682515.5,286047002.7,N
1683682535.3,286047002.6,N
1683682555.2,286047002.6,N
1683682575.0,286047002.6,N
1683682575.9,286047002.6,N
1683682595.7,286047001.5,N
1683682615.6,286047001.5,N
1683682635.4,286047001.4,N
1683682655.3,286047004.3,N
1683682675.1,286047001.3,N
1683682676.0,286047001.3,N
1683682695.8,286047002.0,N
1683682715.7,286047002.0,N
1683682735.5,286047001.9,N
1683682755.3,286047002.0,N
1683682775.2,286047004.1,N
1683682795.0,286047003.9,Y
1683682795.9,286047003.9,P
1683682815.8,286047000.3,N
1683682835.6,286047000.3,N
1683682855.4,286047001.1,N
1683682875.3,286046998.2,N
1683682895.1,286046998.2,N
1683682915.9,286046998.6,N
1683682935.7,286047000.5,N
1683682955.5,286046999.8,N
1683682975.4,286047000.9,N
1683682995.2,286047000.0,N
1683683015.0,286046999.9,N
1683683016.0,286046999.9,N
1683683035.8,286047000.3,N
1683683055.6,286047002.6,N
1683683075.5,286047001.8,N
1683683095.3,286047002.7,N
1683683115.1,286047004.4,N
1683683135.9,286047004.4,N
1683683155.7,286047002.3,N
1683683175.6,286047002.5,N
1683683195.4,286047002.3,N
1683683215.2,286047002.3,N
1683683235.1,286047002.6,N
1683683236.0,286047002.6,N
1683683255.8,286047002.7,N
1683683275.7,286046999.8,N
1683683295.5,286046999.8,N
1683683315.3,286046999.8,N
1683683335.2,286047002.3,N
1683683355.9,286047002.3,N
1683683375.7,286047002.1,N
1683683395.6,286047001.4,N
1683683415.4,286047002.2,N
1683683435.3,286047001.9,N
1683683455.1,286047001.7,N
1683683456.0,286047001.7,N
1683683475.8,286047002.3,N
1683683495.7,286047002.4,N
1683683515.5,286047002.3,N
1683683535.3,286047001.6,N
1683683555.2,286047001.6,N
1683683575.0,286047004.4,Y
1683683575.9,286047004.4,P
1683683595.8,286047000.3,N
1683683615.6,286047000.5,N
1683683635.4,286047000.0,N
1683683655.3,286047000.4,N
1683683675.1,286046999.8,N
1683683695.8,286047000.2,N
1683683715.7,286046999.8,N
1683683735.5,286046999.8,N
1683683755.4,286047000.3,N
1683683775.2,286047000.6,N
1683683795.0,286047000.8,N
1683683795.9,286047000.8,N
1683683815.8,286047000.1,N
1683683835.6,286047000.1,N
1683683855.5,286047000.3,N
1683683875.3,286046999.8,N
1683683895.1,286047000.1,N
1683683915.9,286046999.7,N
1683683935.7,286047002.6,N
1683683955.5,286047000.3,N
1683683975.4,286047000.2,N
1683683995.2,286046999.7,N
